Погода в Дигоре

Турция     40°22′40″N   43°24′54″E
темп.,
°C
ветер,
м/с
пор.,
м/с
влажн.,
%
обл.,
%
осадки,
мм/ч
давл.,
гПа
погр.,
м
8 мая, сб
сб800:00+8сз33714 0.0 101830
03:00+7ссз22733 0.0 101924
06:00+7ссз11745 0.0 101950
09:00+12юв226015 0.0 1018830
12:00+16юв5448100 0.0 10151397
15:00+17юв654510 0.0 10131335
18:00+15ююв575513 0.0 1013548
21:00+11ююз227133 0.1 101526
9 мая, вс
вс900:00+10сз1176100 0.1 101511
03:00+9ссз1177100 0.1 101413
06:00+10ю0175100 0.0 101424
09:00+15ююв44535 0.0 1012820
12:00+19ююв8104190 0.0 10082079
15:00+18юз51244100 0.5 10051044
18:00+9с468480 6.9 1011492
21:00+7сз4679100 10.8 1015490
10 мая, пн
пн1000:00+4сз698081 0.3 1015480
03:00+3сз6972100 0.3 1017695
06:00+2сз7117034 0.0 1020701
09:00+5сз78420 0.0 10181287
12:00+9сз67334 0.0 10161812
15:00+12ссз56325 0.0 10132021
18:00+9ссз66404 0.0 1014920
21:00+3с47561 0.0 1019197
11 мая, вт
вт1100:00+1сз46640 0.0 1020199
03:000сз45674 0.0 1020136
06:00+1сз35635 0.0 1020222
09:00+7ссв31542 0.0 1016750
12:00+11вюв344611 0.0 10141390
15:00+14юв55418 0.0 10111452
18:00+13ююв45520 0.0 1011556
21:00+7всв01732 0.0 101329
12 мая, ср
ср1200:00+5ссз34830 0.0 101588
03:00+4ссз33810 0.0 101548
06:00+6с22730 0.0 101561
09:00+13юв34530 0.0 1013701
12:00+17ююв58381 0.0 10111740
15:00+20ююз6112594 0.0 10083683
18:00+15ююв7105642 0.0 1011510
21:00+10юз47760 0.1 1015145